• In Kazakhstan
  • List of Countries
  • For 7 days
  • Water Temperature
  • Satellite Maps
  • Weather Map
  • News
  • Weather Widgets
  • user-avatar
    Login

    Hourly Weather Perth

    Today, 19 September, Tuesday

    Time Temperature Precipitation Wind Pressure Humidity
    00:00 +18°C° 0 mm 1 mps 762 mmHg 73%
    01:00 +16°C° 0 mm 1 mps 761 mmHg 74%
    02:00 +16°C° 0 mm 2 mps 761 mmHg 74%
    03:00 +16°C° 0 mm 2 mps 761 mmHg 78%
    04:00 +15°C° 0 mm 2 mps 761 mmHg 82%
    05:00 +15°C° 0 mm 2 mps 761 mmHg 86%
    06:00 +16°C° 0 mm 2 mps 761 mmHg 84%
    07:00 +17°C° 0 mm 2 mps 761 mmHg 82%
    08:00 +19°C° 0 mm 2 mps 761 mmHg 78%
    09:00 +20°C° 0 mm 2 mps 761 mmHg 73%
    10:00 +22°C° 0 mm 3 mps 760 mmHg 69%
    11:00 +23°C° 0 mm 4 mps 760 mmHg 65%
    12:00 +23°C° 0 mm 4 mps 760 mmHg 68%
    13:00 +22°C° 0 mm 5 mps 760 mmHg 71%
    14:00 +22°C° 0 mm 4 mps 759 mmHg 73%
    15:00 +22°C° 0 mm 4 mps 759 mmHg 75%
    16:00 +21°C° 0 mm 4 mps 759 mmHg 76%
    17:00 +21°C° 0 mm 5 mps 759 mmHg 78%
    18:00 +20°C° 0 mm 4 mps 759 mmHg 82%
    19:00 +19°C° 0 mm 4 mps 760 mmHg 87%
    20:00 +18°C° 0 mm 3 mps 760 mmHg 91%
    21:00 +18°C° 0.1 mm 3 mps 760 mmHg 92%
    22:00 +18°C° 0.1 mm 3 mps 760 mmHg 92%
    23:00 +18°C° 0.1 mm 4 mps 760 mmHg 93%

    Tomorrow, 20 September, Wednesday

    Time Temperature Precipitation Wind Pressure Humidity
    00:00 +18°C° 0.2 mm 4 mps 759 mmHg 92%
    01:00 +18°C° 0.2 mm 4 mps 759 mmHg 92%
    02:00 +18°C° 0.2 mm 4 mps 759 mmHg 91%
    03:00 +17°C° 0.1 mm 4 mps 759 mmHg 90%
    04:00 +17°C° 0.1 mm 4 mps 759 mmHg 90%
    05:00 +15°C° 0.1 mm 4 mps 759 mmHg 89%
    06:00 +16°C° 0.1 mm 5 mps 759 mmHg 86%
    07:00 +16°C° 0.1 mm 5 mps 759 mmHg 83%
    08:00 +17°C° 0.1 mm 5 mps 760 mmHg 81%
    09:00 +17°C° 0.1 mm 5 mps 760 mmHg 75%
    10:00 +19°C° 0.1 mm 5 mps 760 mmHg 69%
    11:00 +20°C° 0.1 mm 5 mps 760 mmHg 64%
    12:00 +20°C° 0 mm 5 mps 760 mmHg 63%
    13:00 +20°C° 0 mm 5 mps 759 mmHg 62%
    14:00 +20°C° 0 mm 4 mps 759 mmHg 61%
    15:00 +20°C° 0.1 mm 4 mps 759 mmHg 66%
    16:00 +19°C° 0.1 mm 4 mps 758 mmHg 71%
    17:00 +19°C° 0.1 mm 4 mps 758 mmHg 76%
    18:00 +19°C° 0.4 mm 4 mps 758 mmHg 81%
    19:00 +17°C° 0.4 mm 5 mps 758 mmHg 86%
    20:00 +17°C° 0.4 mm 5 mps 758 mmHg 92%
    21:00 +17°C° 0.8 mm 5 mps 758 mmHg 92%
    22:00 +17°C° 0.8 mm 6 mps 758 mmHg 92%
    23:00 +17°C° 0.8 mm 6 mps 757 mmHg 92%

    Day after tomorrow, 21 September, Thursday

    Time Temperature Precipitation Wind Pressure Humidity
    00:00 +17°C° 0.5 mm 6 mps 757 mmHg 92%
    01:00 +17°C° 0.5 mm 7 mps 756 mmHg 93%
    02:00 +17°C° 0.5 mm 7 mps 756 mmHg 93%
    03:00 +18°C° 0.1 mm 7 mps 755 mmHg 93%
    04:00 +18°C° 0.1 mm 7 mps 755 mmHg 92%
    05:00 +18°C° 0.1 mm 7 mps 754 mmHg 92%
    06:00 +18°C° 0 mm 7 mps 754 mmHg 90%
    07:00 +18°C° 0 mm 8 mps 754 mmHg 89%
    08:00 +18°C° 0 mm 8 mps 754 mmHg 87%
    09:00 +19°C° 0.2 mm 9 mps 753 mmHg 81%
    10:00 +21°C° 0.2 mm 10 mps 753 mmHg 75%
    11:00 +22°C° 0.2 mm 11 mps 753 mmHg 69%
    12:00 +21°C° 1.3 mm 11 mps 752 mmHg 74%
    13:00 +19°C° 1.3 mm 11 mps 752 mmHg 80%
    14:00 +19°C° 1.3 mm 11 mps 751 mmHg 86%
    15:00 +18°C° 0.3 mm 10 mps 752 mmHg 85%
    16:00 +18°C° 0.3 mm 9 mps 752 mmHg 83%
    17:00 +17°C° 0.3 mm 8 mps 752 mmHg 82%
    18:00 +17°C° 0.1 mm 8 mps 753 mmHg 81%
    19:00 +16°C° 0.1 mm 7 mps 753 mmHg 79%
    20:00 +16°C° 0.1 mm 7 mps 753 mmHg 78%
    21:00 +15°C° 0.1 mm 7 mps 753 mmHg 78%
    22:00 +15°C° 0.1 mm 7 mps 753 mmHg 78%
    23:00 +15°C° 0.1 mm 7 mps 753 mmHg 79%

    22 September, Friday

    Time Temperature Precipitation Wind Pressure Humidity
    00:00 +15°C° 0.2 mm 7 mps 753 mmHg 79%
    01:00 +15°C° 0.2 mm 7 mps 752 mmHg 80%
    02:00 +15°C° 0.2 mm 7 mps 752 mmHg 81%
    03:00 +15°C° 0.5 mm 8 mps 751 mmHg 81%
    04:00 +15°C° 0.5 mm 8 mps 751 mmHg 81%
    05:00 +15°C° 0.5 mm 9 mps 750 mmHg 82%
    06:00 +15°C° 1.1 mm 9 mps 751 mmHg 81%
    07:00 +14°C° 1.1 mm 10 mps 751 mmHg 80%
    08:00 +14°C° 1.1 mm 10 mps 751 mmHg 79%
    09:00 +14°C° 0.6 mm 10 mps 751 mmHg 78%
    10:00 +14°C° 0.6 mm 10 mps 752 mmHg 77%
    11:00 +14°C° 0.6 mm 10 mps 752 mmHg 75%
    12:00 +16°C° 0.3 mm 11 mps 752 mmHg 71%
    13:00 +16°C° 0.3 mm 11 mps 752 mmHg 67%
    14:00 +17°C° 0.3 mm 12 mps 752 mmHg 63%
    15:00 +16°C° 0.5 mm 11 mps 753 mmHg 67%
    16:00 +16°C° 0.5 mm 10 mps 753 mmHg 71%
    17:00 +15°C° 0.5 mm 9 mps 754 mmHg 75%
    18:00 +13°C° 0.3 mm 8 mps 755 mmHg 77%
    19:00 +14°C° 0.3 mm 7 mps 755 mmHg 79%
    20:00 +12°C° 0.3 mm 7 mps 756 mmHg 81%
    21:00 +13°C° 0.1 mm 6 mps 757 mmHg 82%
    22:00 +13°C° 0.1 mm 5 mps 757 mmHg 83%
    23:00 +12°C° 0.1 mm 5 mps 758 mmHg 84%

    23 September, Saturday

    Time Temperature Precipitation Wind Pressure Humidity
    00:00 +12°C° 0.1 mm 5 mps 758 mmHg 84%
    01:00 +12°C° 0.1 mm 5 mps 758 mmHg 85%
    02:00 +10°C° 0.1 mm 5 mps 758 mmHg 85%
    03:00 +10°C° 0 mm 5 mps 758 mmHg 84%
    04:00 +11°C° 0 mm 4 mps 758 mmHg 83%
    05:00 +11°C° 0 mm 4 mps 759 mmHg 82%
    06:00 +12°C° 0.1 mm 5 mps 759 mmHg 79%
    07:00 +13°C° 0.1 mm 5 mps 760 mmHg 75%
    08:00 +13°C° 0.1 mm 5 mps 760 mmHg 72%
    09:00 +14°C° 0.1 mm 5 mps 760 mmHg 66%
    10:00 +15°C° 0.1 mm 5 mps 760 mmHg 60%
    11:00 +16°C° 0.1 mm 5 mps 760 mmHg 55%
    12:00 +16°C° 0 mm 5 mps 760 mmHg 55%
    13:00 +16°C° 0 mm 5 mps 759 mmHg 55%
    14:00 +16°C° 0 mm 5 mps 759 mmHg 55%
    15:00 +15°C° 0.1 mm 4 mps 759 mmHg 58%
    16:00 +15°C° 0.1 mm 4 mps 759 mmHg 60%
    17:00 +14°C° 0.1 mm 4 mps 759 mmHg 62%
    18:00 +13°C° 0 mm 3 mps 759 mmHg 67%
    19:00 +12°C° 0 mm 3 mps 759 mmHg 71%
    20:00 +12°C° 0 mm 2 mps 759 mmHg 76%
    21:00 +10°C° 0 mm 2 mps 759 mmHg 76%
    22:00 +10°C° 0 mm 3 mps 758 mmHg 76%
    23:00 +10°C° 0 mm 3 mps 758 mmHg 76%

    24 September, Sunday

    Time Temperature Precipitation Wind Pressure Humidity
    00:00 +10°C° 0 mm 3 mps 757 mmHg 77%
    01:00 +10°C° 0 mm 3 mps 757 mmHg 78%
    02:00 +10°C° 0 mm 4 mps 756 mmHg 79%
    03:00 +10°C° 0.4 mm 4 mps 755 mmHg 80%
    04:00 +10°C° 0.4 mm 4 mps 755 mmHg 82%
    05:00 +9°C° 0.4 mm 5 mps 754 mmHg 83%
    06:00 +9°C° 0.9 mm 5 mps 754 mmHg 85%
    07:00 +9°C° 0.9 mm 6 mps 754 mmHg 87%
    08:00 +10°C° 0.9 mm 6 mps 753 mmHg 89%
    09:00 +11°C° 1.1 mm 7 mps 753 mmHg 85%
    10:00 +11°C° 1.1 mm 7 mps 753 mmHg 82%
    11:00 +12°C° 1.1 mm 8 mps 752 mmHg 79%
    12:00 +13°C° 0.2 mm 8 mps 752 mmHg 72%
    13:00 +15°C° 0.2 mm 8 mps 751 mmHg 65%
    14:00 +16°C° 0.2 mm 9 mps 751 mmHg 58%
    15:00 +15°C° 0.6 mm 8 mps 751 mmHg 64%
    16:00 +12°C° 0.6 mm 8 mps 751 mmHg 71%
    17:00 +11°C° 0.6 mm 7 mps 751 mmHg 77%
    18:00 +11°C° 0.5 mm 7 mps 751 mmHg 78%
    19:00 +10°C° 0.5 mm 6 mps 751 mmHg 79%
    20:00 +9°C° 0.5 mm 6 mps 752 mmHg 80%
    21:00 +9°C° 0.8 mm 6 mps 751 mmHg 81%
    22:00 +9°C° 0.8 mm 6 mps 751 mmHg 81%
    23:00 +9°C° 0.8 mm 6 mps 751 mmHg 82%
    Show more